TimeAKST,TemperatureF,Dew PointF,Humidity,Sea Level PressureIn,VisibilityMPH,Wind Direction,Wind SpeedMPH,Gust SpeedMPH,PrecipitationIn,Events,Conditions,WindDirDegrees,DateUTC
12:53 AM,-36.0,-9999,N/A,30.46,10.0,Calm,Calm,-,N/A,,Clear,0,2013-11-30 09:53:00
1:53 AM,-36.0,-9999,N/A,30.49,10.0,Calm,Calm,-,N/A,,Clear,0,2013-11-30 10:53:00
2:53 AM,-36.0,-9999,N/A,30.51,10.0,Calm,Calm,-,N/A,,Clear,0,2013-11-30 11:53:00
3:53 AM,-36.9,-9999,N/A,30.54,10.0,Calm,Calm,-,N/A,,Clear,0,2013-11-30 12:53:00
4:53 AM,-36.0,-9999,N/A,30.57,10.0,Calm,Calm,-,N/A,,Partly Cloudy,0,2013-11-30 13:53:00
5:53 AM,-35.0,-9999,N/A,30.59,10.0,Calm,Calm,-,N/A,,Scattered Clouds,0,2013-11-30 14:53:00
6:53 AM,-34.1,-9999,N/A,30.62,10.0,Calm,Calm,-,N/A,,Partly Cloudy,0,2013-11-30 15:53:00
7:53 AM,-36.0,-9999,N/A,30.65,10.0,Calm,Calm,-,N/A,,Partly Cloudy,0,2013-11-30 16:53:00
8:53 AM,-36.0,-9999,N/A,30.67,10.0,Calm,Calm,-,N/A,,Scattered Clouds,0,2013-11-30 17:53:00
9:53 AM,-36.9,-9999,N/A,30.69,10.0,Calm,Calm,-,N/A,,Scattered Clouds,0,2013-11-30 18:53:00
10:53 AM,-35.0,-9999,N/A,30.72,10.0,Calm,Calm,-,N/A,,Partly Cloudy,0,2013-11-30 19:53:00
11:53 AM,-29.0,-35.0,73,30.72,10.0,Calm,Calm,-,N/A,,Partly Cloudy,0,2013-11-30 20:53:00
12:53 PM,-26.0,-32.1,73,30.73,10.0,Calm,Calm,-,N/A,,Partly Cloudy,0,2013-11-30 21:53:00
1:53 PM,-24.0,-31.0,70,30.74,10.0,Calm,Calm,-,N/A,,Scattered Clouds,0,2013-11-30 22:53:00
2:53 PM,-29.0,-34.1,77,30.76,10.0,Calm,Calm,-,N/A,,Scattered Clouds,0,2013-11-30 23:53:00
3:53 PM,-31.0,-9999,N/A,30.77,10.0,Calm,Calm,-,N/A,,Scattered Clouds,0,2013-12-01 00:53:00
4:53 PM,-32.1,-9999,N/A,30.78,10.0,Calm,Calm,-,N/A,,Scattered Clouds,0,2013-12-01 01:53:00
5:53 PM,-29.9,-9999,N/A,30.77,10.0,Calm,Calm,-,N/A,,Scattered Clouds,0,2013-12-01 02:53:00
6:53 PM,-27.0,-33.0,73,30.77,10.0,Calm,Calm,-,N/A,,Scattered Clouds,0,2013-12-01 03:53:00
7:20 PM,-25.6,-31.0,76,30.44,2.5,Calm,Calm,-,N/A,Snow,Light Snow,0,2013-12-01 04:20:00
7:25 PM,-25.6,-32.8,69,30.44,2.0,Calm,Calm,-,N/A,Snow,Light Snow,0,2013-12-01 04:25:00
7:35 PM,-25.6,-32.8,69,30.44,3.0,Calm,Calm,-,N/A,Snow,Light Snow,0,2013-12-01 04:35:00
7:42 PM,-27.4,-32.8,75,30.44,6.0,Calm,Calm,-,N/A,Snow,Light Snow,0,2013-12-01 04:42:00
7:53 PM,-27.0,-33.0,73,30.78,6.0,Calm,Calm,-,N/A,Snow,Light Snow,0,2013-12-01 04:53:00
8:28 PM,-27.4,-34.6,69,30.45,2.5,Calm,Calm,-,N/A,Snow,Light Snow,0,2013-12-01 05:28:00
8:40 PM,-27.4,-32.8,75,30.45,3.0,Calm,Calm,-,N/A,Snow,Light Snow,0,2013-12-01 05:40:00
8:53 PM,-27.9,-35.0,69,30.79,9.0,Calm,Calm,-,N/A,,Scattered Clouds,0,2013-12-01 05:53:00
9:53 PM,-32.1,-9999,N/A,30.83,10.0,Calm,Calm,-,N/A,,Clear,0,2013-12-01 06:53:00
10:53 PM,-33.0,-9999,N/A,30.85,10.0,Calm,Calm,-,N/A,,Clear,0,2013-12-01 07:53:00
11:53 PM,-35.0,-9999,N/A,30.87,10.0,Calm,Calm,-,N/A,,Clear,0,2013-12-01 08:53:00